Orbital Elements at Epoch 2459000.5 (2020-May-31.0) TDB
Reference: JPL 14 (heliocentric ecliptic J2000)
Element | Value | Uncertainty (1-sigma) | Units |
e | .2062059408483247 | 1.0774e-07 | |
a | 2.565413655738897 | 2.4641e-08 | au |
q | 2.036410119192118 | 2.8605e-07 | au |
i | 8.510643682867036 | 5.9336e-06 | deg |
node | 81.26313929354916 | 5.5175e-05 | deg |
peri | 243.8053104942334 | 5.7376e-05 | deg |
M | 63.08877602881979 | 1.2225e-05 | deg |
tp | 2458737.482811446970 (2019-Sep-10.98281145) | 5.0818e-05 | TDB |
period | 1500.840463854251 4.11 | 2.1624e-05 5.92e-08 | d yr |
n | .2398656010882714 | 3.4559e-09 | deg/d |
Q | 3.094417192285677 | 2.9722e-08 | au |
|
| | Orbit Determination Parameters
Additional Information
|